FENGYUN 1C DEB

Satellite information

Favourite Embed

Satellite Type and Status

DEBRISIN ORBIT

Key statistics

Satellite FENGYUN 1C DEB at a glance.

Uptime

9555

Days in orbit

Revolutions

≈ 14.4

Per day

Orbit

SSO

Sun Synchronous Orbit

Inclination

98.7

Latest

Satellite identification and parameters

Extended collection of information and parameters for FENGYUN 1C DEB.

Object identification

Identified? True

Debris? True

Object name: FENGYUN 1C DEB

International designator: 1999-025FA

Object number (NORAD): 29856

Object ID (CCSDS): 29856

Country: PEOPLES REPUBLIC OF CHINA (PRC)

Current information (Y/N): Y

RCS size: SMALL

Orbital parameters

Period: 99.868 minutes

Inclination: 98.694 deg

SMA: 7130.338 km

Apoapsis: 954.161 km

Periapsis: 550.246 km

RAAN: 277.7302 deg

Eccentricy: 0.0283237

Argument of periapsis: 56.6125 deg

Mean anomaly: 62.6361 deg

Mean motion: 14.41908008 rev/day

Mean motion (dot): 0.00009694 rev/day2

B* drag term: 0.0018345 1/REarth

Two-line elements (TLE)

Creation date: July 6, 2025, 6:05 p.m.

Reference frame: TEME

Reference center: EARTH

Epoch: July 6, 2025, 12:22 p.m. UTC

TLE line 0: 0 FENGYUN 1C DEB

TLE line 1: 1 29856U 99025FA 25187.51584890 .00009694 00000-0 18345-2 0 9999

TLE line 2: 2 29856 98.6940 277.7302 0283237 56.6125 62.6361 14.41908008940761

Live tracking on map

Real-time ground track for satellite FENGYUN 1C DEB.

In-orbit conjunctions

A list of the most updated potential collisions computed for object FENGYUN 1C DEB.

Target Orbit TCA Probability of collision Miss distance Type
FENGYUN 1C DEB SSO 2024-11-10 17:01:02 0.0003077558 851.0 (m) DEBRIS
DELTA 1 DEB SSO 2024-07-22 20:22:12 0.000103754 341.0 (m) DEBRIS

Associated space launch

Chinese polar orbiting meteorological satellite

FENGYUN 1C DEB was lifted into orbit during the mission ‘Long March 4B | Feng Yun 1C’, on board a Long March 4B space rocket.

The launch took place on May 10, 1999, 1:33 a.m. from Launch Complex 7.

For more information about the launch, click the button.

Launch to space Long March 4B | Feng Yun 1C
Long March 4B | Feng Yun 1C

Agency: N/A

Status: Launch Successful

Launch date: May 10, 1999, 1:33 a.m. UTC

Rocket: Long March 4B

Launch pad: Launch Complex 7

Location: Taiyuan Satellite Launch Center, People's Republic of China

...

Latest news about this satellite

There are no fresh news available about this satellite. Check back as we update our databases every day.


Newsletter sign-up

Weekly statistics, charts and insights to help you stay on top of the space industry.